Frederick, MD

8:58 AM EST on December 15, 2019 (GMT -0500)
Frederick Municipal

Weather History for KFDK - August, 2019

Change the Weather History Date:

Tuesday, August 20, 2019

  Actual Average (WUND) Record (WUND)
Temperature  
Mean Temperature 81 °F -  
Max Temperature 93 °F - - (-1)
Min Temperature 69 °F - - (-1)
Cooling Degree Days 16    
Growing Degree Days 31 (Base 50)    
Moisture  
Dew Point 70 °F    
Average Humidity 82    
Maximum Humidity 94    
Minimum Humidity 46    
Precipitation  
Precipitation 0.00 in - - ()
Sea Level Pressure  
Sea Level Pressure 30.08 in    
Wind  
Wind Speed 1 mph (SSE)    
Max Wind Speed 9 mph    
Max Gust Speed -    
Visibility 10 miles    
Events Rain , Thunderstorm    
Averages and records for this station are not official NWS values.
T = Trace of Precipitation, MM = Missing Value Source: NWS Daily Summary

Daily Weather History Graph

Daily Weather History Graph

Search for Another Location

Airport or City:

Astronomy

Aug. 20, 2019 Rise Set
Actual Time 6:26 AM EDT 7:58 PM EDT
Civil Twilight 5:58 AM EDT 8:26 PM EDT
Nautical Twilight 5:24 AM EDT 9:00 PM EDT
Astronomical Twilight 4:47 AM EDT 9:36 PM EDT
Moon 10:47 PM EDT (8/20) 11:01 AM EDT (8/20)
Length of Visible Light 14h 28m
Length of Day
13h 31m
Waning Gibbous, 78% of the Moon is Illuminated
Aug 20
Waning Gibbous
Aug 23
Last Quarter
Aug 30
New
Sep 5
First Quarter
Sep 14
Full

Hourly Weather History & Observations

Time (EDT) Temp. Heat Index Dew Point Humidity Pressure Visibility Wind Dir Wind Speed Gust Speed Precip Events Conditions
12:10 AM 77.0 °F - 69.8 °F 78% 30.09 in 10.0 mi Calm Calm - N/A   Clear
12:30 AM 77.0 °F - 69.8 °F 78% 30.08 in 10.0 mi Calm Calm - N/A   Clear
12:50 AM 75.2 °F - 71.6 °F 89% 30.07 in 10.0 mi Calm Calm - N/A   Clear
1:10 AM 75.2 °F - 69.8 °F 83% 30.07 in 10.0 mi Calm Calm - N/A   Clear
1:30 AM 73.4 °F - 71.6 °F 94% 30.07 in 10.0 mi SE 3.5 mph - N/A   Clear
1:50 AM 73.4 °F - 71.6 °F 94% 30.07 in 10.0 mi Calm Calm - N/A   Clear
2:10 AM 73.4 °F - 71.6 °F 94% 30.07 in 10.0 mi SE 4.6 mph - N/A   Clear
2:30 AM 73.4 °F - 69.8 °F 88% 30.07 in 10.0 mi Calm Calm - N/A   Clear
2:50 AM 73.4 °F - 69.8 °F 88% 30.08 in 10.0 mi Calm Calm - N/A   Clear
3:10 AM 73.4 °F - 71.6 °F 94% 30.08 in 10.0 mi Calm Calm - N/A   Clear
3:50 AM 73.4 °F - 69.8 °F 88% 30.09 in 10.0 mi Calm Calm - N/A   Clear
4:10 AM 71.6 °F - 69.8 °F 94% 30.09 in 10.0 mi Calm Calm - N/A   Clear
4:30 AM 71.6 °F - 69.8 °F 94% 30.09 in 10.0 mi Calm Calm - N/A   Clear
4:50 AM 71.6 °F - 69.8 °F 94% 30.09 in 10.0 mi Calm Calm - N/A   Clear
5:10 AM 71.6 °F - 69.8 °F 94% 30.10 in 7.0 mi Calm Calm - N/A   Clear
5:30 AM 71.6 °F - 69.8 °F 94% 30.10 in 10.0 mi Calm Calm - N/A   Clear
5:50 AM 71.6 °F - 69.8 °F 94% 30.10 in 10.0 mi Calm Calm - N/A   Clear
6:10 AM 71.6 °F - 69.8 °F 94% 30.10 in 10.0 mi Calm Calm - N/A   Clear
6:30 AM 71.6 °F - 69.8 °F 94% 30.11 in 7.0 mi Calm Calm - N/A   Clear
6:47 AM 71.6 °F - 69.8 °F 94% 30.12 in 10.0 mi Calm Calm - N/A   Clear
6:50 AM 71.6 °F - 69.8 °F 94% 30.12 in 10.0 mi Calm Calm - N/A   Clear
7:05 AM 69.8 °F - 68.0 °F 94% 30.12 in 10.0 mi Calm Calm - N/A   Clear
7:53 AM 73.4 °F - 71.6 °F 94% 30.13 in 10.0 mi Calm Calm - N/A   Clear
8:47 AM 78.8 °F - 71.6 °F 78% 30.13 in 10.0 mi NNE 3.5 mph - N/A   Clear
9:47 AM 84.2 °F 88.4 °F 69.8 °F 62% 30.14 in 10.0 mi NE 5.8 mph - N/A   Clear
10:47 AM 87.8 °F 92.6 °F 69.8 °F 55% 30.14 in 10.0 mi NNE 3.5 mph - N/A   Clear
11:47 AM 89.6 °F 94.7 °F 69.8 °F 52% 30.12 in 10.0 mi ENE 3.5 mph - N/A   Clear
12:47 PM 91.4 °F 96.8 °F 69.8 °F 49% 30.11 in 10.0 mi SSW 4.6 mph - N/A   Scattered Clouds
1:47 PM 93.2 °F 98.8 °F 69.8 °F 46% 30.10 in 10.0 mi SSW 4.6 mph - N/A   Mostly Cloudy
2:47 PM 93.2 °F 98.8 °F 69.8 °F 46% 30.07 in 10.0 mi South 5.8 mph - N/A   Mostly Cloudy
3:47 PM 91.4 °F 96.8 °F 69.8 °F 49% 30.06 in 10.0 mi South 3.5 mph - N/A Thunderstorm Overcast
4:47 PM 91.4 °F 96.8 °F 69.8 °F 49% 30.05 in 10.0 mi Calm Calm - N/A   Mostly Cloudy
5:47 PM 91.4 °F 98.4 °F 71.6 °F 52% 30.04 in 10.0 mi SSE 3.5 mph - N/A   Scattered Clouds
6:47 PM 84.2 °F 88.4 °F 69.8 °F 62% 30.05 in 10.0 mi SSE 9.2 mph - N/A Thunderstorm Thunderstorm
7:47 PM 75.2 °F - 71.6 °F 89% 30.07 in 5.0 mi ENE 5.8 mph - N/A Rain Light Rain
8:50 PM 75.2 °F - 71.6 °F 89% 30.08 in 10.0 mi WSW 6.9 mph - N/A   Scattered Clouds
9:30 PM 75.2 °F - 71.6 °F 89% 30.08 in 10.0 mi SSW 5.8 mph - N/A   Clear
9:50 PM 73.4 °F - 69.8 °F 88% 30.07 in 10.0 mi South 3.5 mph - N/A   Clear
10:10 PM 73.4 °F - 69.8 °F 88% 30.06 in 10.0 mi Calm Calm - N/A   Clear
10:30 PM 73.4 °F - 69.8 °F 88% 30.05 in 10.0 mi Calm Calm - N/A   Clear
10:50 PM 71.6 °F - 69.8 °F 94% 30.05 in 10.0 mi South 3.5 mph - N/A   Clear
11:10 PM 71.6 °F - 69.8 °F 94% 30.04 in 10.0 mi SSE 3.5 mph - N/A   Clear
11:30 PM 71.6 °F - 69.8 °F 94% 30.05 in 10.0 mi Calm Calm - N/A   Clear
11:50 PM 71.6 °F - 69.8 °F 94% 30.07 in 10.0 mi South 3.5 mph - N/A   Clear